METEOR 2-5 DEB, 40214

Orbit data source: Space-Track

METEOR 2-5 DEB, 40214 is space debris in LEO originally from a launch on Wed, 31 Oct 1979 UTC launched from the Plesetsk Missile And Space Complex (PKMTR). Debris objects in space refer to the collection of defunct objects orbiting the Earth. Examples of debris include non-operational satellites, rocket bodies, and fragments generated from explosions, collisions, or faulty payload assembly.

Loading next visibility...
Identifier
40214, 1979-095CM
Orbit
LEO
Country
Flag of CISCIS
Related business
Manufacturer
Unknown
Mission
Spacecraft
Bus & Motor
Unknown
Mass
Unknown
Launch date (UTC)
1979-10-31 (47 years ago)
Launch vehicle
Unknown
Launch site
Plesetsk Missile And Space Complex (PKMTR)
Object type
Payload
Rocket body
Debris
Shape & HBR
Unknown shape, 0.1 m
Radar Cross Section
Medium (>0.1 m² and <1 m²)

Expand to show TLE details & history
Last TLE update: 2 days ago

TLE from 2 days ago
0 METEOR 2-5 DEB
1 40214U 79095CM  26171.23550626  .00001701  00000-0  60255-3 0  9997
2 40214  81.2037 152.3496 0021375  49.9292 310.3762 14.34061436607510
Epoch: 2026-06-20T05:39Z
TLE epoch observation values (Epoch: 2026-06-20T05:39:07.740Z)
Latitude
-0.00003°
Longitude
159.11431°
Altitude
771.226 km
Speed
7.474 km/s
True Right ascension
10h 09m 23s
True Declination
0° 00' 00"
Sunlit
Object was in daylight at epoch
Visualization orbit readout
Latitude
Unknown
Longitude
Unknown
Altitude
Unknown
Speed
Unknown
Apparent Right ascension
Unknown
Apparent Declination
Unknown
Sunlit
N/A
Visualization observer readout
Local Sidereal Time
21:42:26
Azimuth
Unknown
Elevation
Unknown
Doppler factor
Unknown
Orbital elements
Apogee altitude
790.622 km
Perigee altitude
760.041 km
Semi-major axis
7,153.468 km
Eccentricity
0.00214
Inclination
81.2037°
RAAN
152.3496°
Arg. of periapsis
49.9292°
True anomaly
310.18928°
Mean anomaly
310.3762°
Eccentric anomaly
310.28277°
Mean motion
3.5873 °/min
Orbital period
100.35 mins
BSTAR
0.00060255
Loading maneuver chart data...
Computing Atmospheric mass density...

Documentation

Showing up to 5 results
|